Location: Unspecified
(0.0000°N, 0.0000°E)
Time: 22:41:08
(UTC+00:00)

Vanguard 1 - Pass Details

Date: 07 October 2020
Orbit: 649 x 3833 km, 34.3° (Epoch: 27 October)

Event Time Altitude Azimuth Distance (km) Brightness Sun altitude
Rises 03:56:26 0° 291° (WNW) 3,243 - -27.7°
Reaches altitude 10° 03:58:31 10° 285° (WNW) 2,490 - -27.2°
Exits shadow 04:03:10 46° 234° (SW) 1,452 10.5 -26.0°
Maximum altitude 04:04:06 49° 210° (SSW) 1,475 10.7 -25.8°
Drops below altitude 10° 04:13:46 10° 138° (SE) 4,233 13.9 -23.4°
Sets 04:18:29 0° 134° (SE) 5,781 14.8 -22.2°
